Tracking 18816 objects as of 17-October-2017
HD Live streaming from Space Station
objects crossing your sky now

CRRES DEB (CANISTER)

Track CRRES DEB (CANISTER) now!


NORAD ID: 21590
Int'l Code: 1990-065F
Perigee: 334.7 km
Apogee: 31,220.0 km
Inclination: 20.4 °
Period: 546.7 minutes
Semi major axis: 22148 km
RCS: 0.1267 m2 (medium)
Launch date: July 25, 1990
Source: United States (US)
Launch site: AIR FORCE EASTERN TEST RANGE (AFETR)

Note: This is SATELLITE DEBRIS
aabbcc
Your satellite tracking list
Your tracking list is empty





NASA's NSSDC Master Catalog

Two Line Element Set (TLE):
1 21590U 90065F   17288.84349931  .00000247  00000-0  73848-3 0  9990
2 21590  20.4330 354.2980 6972361 178.5005 185.9957  2.63384201236657
Source of the keplerian elements: AFSPC